Weather History for Northeast Philadelphia, PA

Change the Weather History Date:

Sunday, January 29, 2012

  Actual Average Record
Temperature  
Mean Temperature 38 °F -  
Max Temperature 45 °F 37 °F 70 °F (2002)
Min Temperature 30 °F 23 °F 10 °F (2005)
Degree Days  
Heating Degree Days 28    
Moisture  
Dew Point 14 °F    
Average Humidity 37    
Maximum Humidity 49    
Minimum Humidity 26    
Precipitation  
Precipitation 0.00 in - - ()
Sea Level Pressure  
Sea Level Pressure 30.16 in    
Wind  
Wind Speed 10 mph (WSW)    
Max Wind Speed 23 mph    
Max Gust Speed 34 mph    
Visibility 10 miles    
Events      
Averages and records for this station are not official NWS values.
T = Trace of Precipitation, MM = Missing Value Source: NWS Daily Summary

Daily Weather History Graph

Daily Weather History Graph

Search for Another Location

Airport:

Trip Planner

Search our weather history database for the weather conditions in past years. The results will help you decide how hot, cold, wet, or windy it might be!

Date:

Astronomy

Jan. 29, 2012 Rise Set
Actual Time 7:11 AM EST 5:14 PM EST
Civil Twilight 6:42 AM EST 5:43 PM EST
Nautical Twilight 6:10 AM EST 6:16 PM EST
Astronomical Twilight 5:38 AM EST 6:48 PM EST
Moon 10:01 AM EST (1/29) 11:57 PM EST (1/29)
Length of Visible Light 11h 00m
Length of Day
10h 03m
Waxing Crescent, 36% of the Moon is Illuminated
Jan 29
Waxing Crescent
Jan 30
First Quarter
Feb 7
Full
Feb 14
Last Quarter
Feb 21
New

Hourly Weather History & Observations

Time (EST) Temp. Windchill Dew Point Humidity Pressure Visibility Wind Dir Wind Speed Gust Speed Precip Events Conditions
12:54 AM 37.9 °F 29.2 °F 14.0 °F 38% 30.13 in 10.0 mi West 15.0 mph - N/A   Clear
1:54 AM 37.0 °F 28.9 °F 12.9 °F 37% 30.16 in 10.0 mi West 12.7 mph - N/A   Clear
2:54 AM 35.1 °F 29.3 °F 12.9 °F 40% 30.17 in 10.0 mi WSW 6.9 mph - N/A   Clear
3:54 AM 35.1 °F 28.6 °F 10.9 °F 37% 30.18 in 10.0 mi West 8.1 mph - N/A   Clear
4:54 AM 33.8 °F 27.0 °F 12.2 °F 41% 30.19 in 10.0 mi West 8.1 mph - N/A   Clear
5:54 AM 30.9 °F 26.2 °F 12.0 °F 46% 30.21 in 10.0 mi WSW 4.6 mph - N/A   Clear
6:54 AM 30.0 °F 26.5 °F 12.9 °F 49% 30.22 in 10.0 mi SW 3.5 mph - N/A   Clear
7:54 AM 32.0 °F 27.5 °F 12.9 °F 45% 30.25 in 10.0 mi SSW 4.6 mph - N/A   Clear
8:54 AM 36.0 °F 30.3 °F 12.0 °F 37% 30.25 in 10.0 mi WSW 6.9 mph - N/A   Clear
9:54 AM 37.9 °F 30.5 °F 12.9 °F 36% 30.25 in 10.0 mi WNW 11.5 mph - N/A   Clear
10:54 AM 39.9 °F 32.5 °F 15.1 °F 36% 30.24 in 10.0 mi WNW 12.7 mph 18.4 mph N/A   Clear
11:54 AM 42.1 °F 36.6 °F 15.1 °F 34% 30.21 in 10.0 mi WNW 9.2 mph - N/A   Clear
12:54 PM 44.1 °F 38.6 °F 14.0 °F 30% 30.19 in 10.0 mi WSW 10.4 mph - N/A   Clear
1:54 PM 44.1 °F 37.7 °F 12.0 °F 27% 30.16 in 10.0 mi WSW 12.7 mph 21.9 mph N/A   Clear
2:54 PM 45.0 °F 38.9 °F 12.0 °F 26% 30.14 in 10.0 mi WSW 12.7 mph 20.7 mph N/A   Clear
3:54 PM 44.1 °F 37.7 °F 14.0 °F 30% 30.13 in 10.0 mi SW 12.7 mph 19.6 mph N/A   Clear
4:54 PM 43.0 °F 36.0 °F 14.0 °F 31% 30.13 in 10.0 mi SW 13.8 mph 19.6 mph N/A   Clear
5:54 PM 42.1 °F 34.9 °F 14.0 °F 32% 30.12 in 10.0 mi SW 13.8 mph - N/A   Clear
6:54 PM 39.9 °F 35.8 °F 15.1 °F 36% 30.13 in 10.0 mi SSW 5.8 mph - N/A   Clear
7:54 PM 39.0 °F 34.8 °F 15.1 °F 38% 30.12 in 10.0 mi SSW 5.8 mph - N/A   Clear
8:54 PM 37.9 °F 33.5 °F 15.1 °F 39% 30.10 in 10.0 mi SSW 5.8 mph - N/A   Clear
9:54 PM 37.9 °F 33.5 °F 16.0 °F 41% 30.08 in 10.0 mi SSW 5.8 mph - N/A   Clear
10:54 PM 39.0 °F 34.8 °F 18.0 °F 43% 30.07 in 10.0 mi SSW 5.8 mph - N/A   Mostly Cloudy
11:54 PM 41.0 °F 31.1 °F 21.0 °F 45% 30.10 in 10.0 mi West 23.0 mph 34.5 mph N/A   Overcast